This is the latest recevied weather packets stored in our database for station/object KI4MRC. If no packets are shown the sender has not sent any weather packets the latest 10 day(s).
| Time | Temp. | Humidity | Pressure | Rain* | Wind** | Luminosity | Snow |
|---|---|---|---|---|---|---|---|
| 1777919872 | 26.11° C | 72% | 1014.8 hPa | 0 mm | - | 222 W/m² | - |
| 1777919569 | 26.11° C | 72% | 1014.7 hPa | 0 mm | - | 296 W/m² | - |
| 1777919267 | 26.67° C | 70% | 1014.8 hPa | 0 mm | - | 329 W/m² | - |
| 1777918964 | 27.22° C | 70% | 1014.9 hPa | 0 mm | - | 356 W/m² | - |
| 1777918661 | 26.67° C | 71% | 1014.9 hPa | 0 mm | - | 777 W/m² | - |
| 1777918359 | 26.67° C | 70% | 1014.8 hPa | 0 mm | - | 424 W/m² | - |
| 1777918058 | 26.67° C | 73% | 1014.9 hPa | 0 mm | - | 1206 W/m² | - |
| 1777917756 | 26.67° C | 70% | 1015.3 hPa | 0 mm | - | 319 W/m² | - |
| 1777917453 | 27.22° C | 71% | 1015 hPa | 0 mm | - | 583 W/m² | - |
| 1777916848 | 26.67° C | 75% | 1015.1 hPa | 0 mm | - | 552 W/m² | - |
| 1777916545 | 25.56° C | 75% | 1015.4 hPa | 0 mm | - | 644 W/m² | - |
| 1777916241 | 25.56° C | 75% | 1015.4 hPa | 0 mm | - | 349 W/m² | - |
| 1777915939 | 25.56° C | 76% | 1015.3 hPa | 0 mm | - | 669 W/m² | - |
| 1777915635 | 25° C | 78% | 1015.5 hPa | 0 mm | - | 594 W/m² | - |
| 1777915332 | 25.56° C | 76% | 1015.4 hPa | 0 mm | - | 191 W/m² | - |
| 1777915028 | 25.56° C | 75% | 1015.4 hPa | 0 mm | - | 210 W/m² | - |
| 1777914422 | 26.11° C | 75% | 1015.3 hPa | 0 mm | - | 397 W/m² | - |
| 1777914120 | 26.67° C | 74% | 1015.2 hPa | 0 mm | - | 379 W/m² | - |
| 1777913815 | 26.11° C | 75% | 1015.5 hPa | 0 mm | - | 486 W/m² | - |
| 1777913512 | 25.56° C | 76% | 1015.6 hPa | 0 mm | - | 493 W/m² | - |
| 1777913209 | 25° C | 78% | 1015.7 hPa | 0 mm | - | 394 W/m² | - |
| 1777912602 | 25° C | 77% | 1015.6 hPa | 0 mm | - | 177 W/m² | - |
| 1777912298 | 25° C | 78% | 1015.7 hPa | 0 mm | - | 152 W/m² | - |
| 1777911993 | 25.56° C | 79% | 1015.8 hPa | 0 mm | - | 207 W/m² | - |
| 1777908662 | 24.44° C | 88% | 1015.7 hPa | 0 mm | - | 473 W/m² | - |
* Rain latest hour (hover to see other rain measurements)
** Current wind speed in m/s (hover to see current wind gust speed)